Torna al catalogo

DMSP 5D-2 F13 DEB

AttivoSSO
NORAD 42323·DEBRIS·🇺🇸 United States

Lanciato Mar 24, 1995 da Vandenberg Space Force Base

Loading…

Prossimi Passaggi (prossime 24 ore)

TLE

AggiornatoSource: Space-Track

Epoca: Sep 14, 2026, 00:03 UTC

1 42323U 95015JR  26257.00212431  .00000250  00000-0  14458-3 0  9991
2 42323  98.8221 271.9771 0003921 118.4302 241.7269 14.17680371565278

Traccia DMSP 5D-2 F13 DEB in tempo reale con AllMySat

Download on the App Store